TimeCST,TemperatureF,Dew PointF,Humidity,Sea Level PressureIn,VisibilityMPH,Wind Direction,Wind SpeedMPH,Gust SpeedMPH,PrecipitationIn,Events,Conditions,WindDirDegrees,DateUTC
12:05 AM,57.2,55.4,94,30.20,1.2,Calm,Calm,-,N/A,,Clear,0,2012-11-21 06:05:00
12:22 AM,55.4,55.4,100,30.20,0.2,Calm,Calm,-,N/A,Fog,Fog,0,2012-11-21 06:22:00
12:51 AM,55.0,54.0,96,30.19,0.2,Calm,Calm,-,N/A,Fog,Fog,0,2012-11-21 06:51:00
1:40 AM,51.8,51.8,100,30.20,0.2,SSW,10.4,20.7,N/A,Fog,Fog,200,2012-11-21 07:40:00
1:51 AM,52.0,52.0,100,30.19,0.2,Calm,Calm,-,N/A,Fog,Fog,0,2012-11-21 07:51:00
2:26 AM,53.6,51.8,94,30.19,0.2,North,-9999.0,-,N/A,Fog,Fog,0,2012-11-21 08:26:00
2:41 AM,51.8,51.8,100,30.20,0.2,North,-9999.0,-,N/A,Fog,Fog,0,2012-11-21 08:41:00
2:51 AM,52.0,51.1,97,30.19,0.2,North,-9999.0,-,N/A,Fog,Fog,0,2012-11-21 08:51:00
3:51 AM,52.0,51.1,97,30.20,0.2,North,-9999.0,-,N/A,Fog,Fog,0,2012-11-21 09:51:00
4:47 AM,51.8,50.0,94,30.20,0.2,Calm,Calm,-,N/A,Fog,Fog,0,2012-11-21 10:47:00
4:51 AM,51.1,50.0,96,30.20,0.5,Calm,Calm,-,N/A,Fog,Fog,0,2012-11-21 10:51:00
4:59 AM,51.8,50.0,94,30.20,0.2,North,-9999.0,-,N/A,Fog,Fog,0,2012-11-21 10:59:00
5:49 AM,51.8,51.8,100,30.21,0.5,North,-9999.0,-,N/A,Fog,Fog,0,2012-11-21 11:49:00
5:50 AM,52.0,51.1,97,30.21,0.5,North,-9999.0,-,N/A,Fog,Fog,0,2012-11-21 11:50:00
5:54 AM,51.8,50.0,94,30.21,1.2,North,-9999.0,-,N/A,,Scattered Clouds,0,2012-11-21 11:54:00
5:57 AM,51.8,50.0,94,30.21,2.5,North,-9999.0,-,N/A,,Scattered Clouds,0,2012-11-21 11:57:00
6:05 AM,51.8,51.8,100,30.21,4.0,North,3.5,-,N/A,,Partly Cloudy,360,2012-11-21 12:05:00
6:31 AM,50.0,48.2,94,30.22,2.5,NNW,4.6,-,N/A,,Mostly Cloudy,330,2012-11-21 12:31:00
6:35 AM,50.0,48.2,94,30.22,1.2,NW,4.6,-,N/A,,Mostly Cloudy,320,2012-11-21 12:35:00
6:44 AM,50.0,48.2,94,30.22,0.5,NNW,3.5,-,N/A,Fog,Fog,330,2012-11-21 12:44:00
6:51 AM,50.0,48.9,96,30.22,0.5,North,3.5,-,N/A,Fog,Fog,350,2012-11-21 12:51:00
7:02 AM,51.8,50.0,94,30.23,0.2,NNW,3.5,-,N/A,Fog,Fog,340,2012-11-21 13:02:00
7:38 AM,53.6,53.6,100,30.24,0.8,North,3.5,-,N/A,,Mist,350,2012-11-21 13:38:00
7:51 AM,55.0,55.0,100,30.24,1.5,Calm,Calm,-,N/A,,Overcast,0,2012-11-21 13:51:00
7:54 AM,55.4,55.4,100,30.24,2.0,Calm,Calm,-,N/A,,Partly Cloudy,0,2012-11-21 13:54:00
8:14 AM,57.2,57.2,100,30.25,4.0,Calm,Calm,-,N/A,,Partly Cloudy,0,2012-11-21 14:14:00
8:15 AM,57.2,57.2,100,30.25,4.0,Calm,Calm,-,N/A,,Partly Cloudy,0,2012-11-21 14:15:00
8:51 AM,63.0,60.1,90,30.26,9.0,Calm,Calm,-,N/A,,Partly Cloudy,0,2012-11-21 14:51:00
9:01 AM,64.4,60.8,88,30.27,10.0,Calm,Calm,-,N/A,,Clear,0,2012-11-21 15:01:00
9:40 AM,66.2,60.8,83,30.27,10.0,Calm,Calm,-,N/A,,Scattered Clouds,0,2012-11-21 15:40:00
9:51 AM,68.0,60.1,76,30.27,10.0,ENE,3.5,-,N/A,,Scattered Clouds,60,2012-11-21 15:51:00
10:51 AM,73.0,61.0,66,30.26,10.0,NE,3.5,-,N/A,,Clear,50,2012-11-21 16:51:00
11:51 AM,77.0,57.9,52,30.24,10.0,East,6.9,-,N/A,,Clear,100,2012-11-21 17:51:00
12:51 PM,78.1,57.0,48,30.21,10.0,ESE,6.9,-,N/A,,Clear,110,2012-11-21 18:51:00
1:51 PM,78.1,55.0,45,30.19,10.0,ESE,6.9,-,N/A,,Clear,110,2012-11-21 19:51:00
2:51 PM,78.1,53.1,42,30.17,10.0,East,3.5,-,N/A,,Clear,80,2012-11-21 20:51:00
3:51 PM,79.0,51.1,38,30.16,10.0,SE,8.1,-,N/A,,Partly Cloudy,140,2012-11-21 21:51:00
4:51 PM,75.9,53.1,45,30.16,10.0,SE,9.2,-,N/A,,Clear,140,2012-11-21 22:51:00
5:51 PM,68.0,53.1,59,30.17,10.0,SSE,4.6,-,N/A,,Clear,160,2012-11-21 23:51:00
6:51 PM,63.0,53.1,70,30.19,10.0,South,5.8,-,N/A,,Clear,190,2012-11-22 00:51:00
7:51 PM,62.1,54.0,75,30.20,10.0,South,3.5,-,N/A,,Clear,190,2012-11-22 01:51:00
8:51 PM,60.1,54.0,80,30.20,10.0,South,4.6,-,N/A,,Clear,180,2012-11-22 02:51:00
9:51 PM,55.9,53.1,90,30.20,10.0,South,4.6,-,N/A,,Clear,190,2012-11-22 03:51:00
10:51 PM,57.9,54.0,87,30.19,10.0,South,5.8,-,N/A,,Clear,180,2012-11-22 04:51:00
11:51 PM,57.0,54.0,89,30.18,7.0,SSW,3.5,-,N/A,,Clear,210,2012-11-22 05:51:00